sat.trackr.live / text

‹ back to catalog

STARLINK-32604

NORAD 62070 · 2024-217P

PAYLOAD ACTIVE UNKNOWN

§ Identity

Operator
Country
US
Launch date
2024-11-24
Launch site
AFWTR
Launch vehicle
Mass (kg)
RCS (m²)

Purposes: comms

External: N2YO · Heavens-Above · Gunter

§ Orbital elements

Epoch: 2026-05-25T04:00:03.998880Z

Period
93.85 min
Inclination
53.1588°
Eccentricity
0.0001521
Mean motion
15.34395116 rev/d
Perigee alt
461.7 km
Apogee alt
463.8 km
Semi-major
6,840.9 km
B*
7.0915e-4
RAAN
198.6268°
Arg perigee
83.9171°
Mean anomaly
177.9650°
Rev number
575

§ Raw data

STARLINK-326041 62070U 24217P   26145.16671295  .00023655  00000+0  70915-3 0  99912 62070  53.1588 198.6268 0001521  83.9171 177.9650 15.34395116  5755

JSON: /api/v1/satellites/62070 · /tle

For live sub-satellite position, see the globe view (requires WebGL).

§ Visibility from observer

Set your observer location to see the next 7 days of passes ≥ 10°. The values pass through the URL so the page stays shareable.

No JS? Fill the form by hand. The geolocation button needs JavaScript.